Location: Arboyeti
(42.1122°N, 44.6017°E)
Time: 21:19:25
(UTC+00:00)

SL-16 R/B - Pass Details

Date: 19 April 2021
Orbit: 985 x 1007 km, 99.5° (Epoch: 17 May)

Event Time Altitude Azimuth Distance (km) Brightness Sun altitude
Exits shadow 23:03:04 67° 294° (WNW) 1,082 2.5 -29.5°
Drops below altitude 10° 23:08:47 10° 341° (NNW) 2,790 5.3 -28.8°
Sets 23:11:18 0° 344° (NNW) 3,745 6.0 -28.6°
